When you browse on this site, cookies collect data to enhance your experience and personalize the content and advertising you see.
Visit our Privacy Policy to learn more. By continuing to use the site, you agree to this use of cookies and data.
  • In Germany
  • List of Countries
  • For 7 days
  • Water Temperature
  • Weather Map
  • Weather Widgets
  • user-avatar
    Login

    Hourly Weather Jewłach

    Today, 25 August, Sunday

    Time Temperature Precipitation Wind Pressure Humidity
    00:00 +27°C° 0 mm 4 mps 759 mmHg 48%
    01:00 +27°C° 0 mm 3 mps 759 mmHg 50%
    02:00 +26°C° 0 mm 2 mps 759 mmHg 52%
    03:00 +26°C° 0 mm 1 mps 758 mmHg 53%
    04:00 +26°C° 0 mm 1 mps 759 mmHg 53%
    05:00 +26°C° 0 mm 1 mps 759 mmHg 53%
    06:00 +26°C° 0 mm 1 mps 759 mmHg 52%
    07:00 +29°C° 0 mm 1 mps 759 mmHg 45%
    08:00 +31°C° 0 mm 1 mps 759 mmHg 38%
    09:00 +35°C° 0 mm 2 mps 759 mmHg 32%
    10:00 +37°C° 0 mm 2 mps 758 mmHg 27%
    11:00 +38°C° 0 mm 2 mps 758 mmHg 22%
    12:00 +40°C° 0 mm 3 mps 757 mmHg 17%
    13:00 +42°C° 0 mm 3 mps 757 mmHg 17%
    14:00 +42°C° 0 mm 3 mps 757 mmHg 16%
    15:00 +43°C° 0 mm 3 mps 757 mmHg 15%
    16:00 +42°C° 0 mm 4 mps 757 mmHg 16%
    17:00 +41°C° 0 mm 5 mps 757 mmHg 17%
    18:00 +39°C° 0 mm 6 mps 757 mmHg 18%
    19:00 +36°C° 0 mm 6 mps 758 mmHg 21%
    20:00 +33°C° 0 mm 5 mps 758 mmHg 24%
    21:00 +29°C° 0 mm 4 mps 759 mmHg 26%
    22:00 +28°C° 0 mm 4 mps 759 mmHg 31%
    23:00 +27°C° 0 mm 3 mps 759 mmHg 36%

    Tomorrow, 26 August, Monday

    Time Temperature Precipitation Wind Pressure Humidity
    00:00 +25°C° 0 mm 3 mps 759 mmHg 40%
    01:00 +25°C° 0 mm 2 mps 759 mmHg 42%
    02:00 +24°C° 0 mm 2 mps 759 mmHg 44%
    03:00 +24°C° 0 mm 1 mps 760 mmHg 46%
    04:00 +24°C° 0 mm 1 mps 760 mmHg 47%
    05:00 +24°C° 0 mm 1 mps 760 mmHg 49%
    06:00 +22°C° 0 mm 0 mps 760 mmHg 50%
    07:00 +24°C° 0.1 mm 0 mps 760 mmHg 43%
    08:00 +29°C° 0.1 mm 1 mps 760 mmHg 35%
    09:00 +32°C° 0.1 mm 1 mps 760 mmHg 27%
    10:00 +34°C° 0 mm 2 mps 760 mmHg 23%
    11:00 +36°C° 0 mm 3 mps 760 mmHg 18%
    12:00 +38°C° 0 mm 4 mps 759 mmHg 14%
    13:00 +40°C° 0 mm 4 mps 759 mmHg 13%
    14:00 +40°C° 0 mm 4 mps 759 mmHg 13%
    15:00 +41°C° 0 mm 5 mps 759 mmHg 12%
    16:00 +40°C° 0 mm 5 mps 759 mmHg 14%
    17:00 +37°C° 0 mm 5 mps 759 mmHg 15%
    18:00 +36°C° 0 mm 5 mps 759 mmHg 17%
    19:00 +34°C° 0 mm 6 mps 760 mmHg 24%
    20:00 +32°C° 0 mm 7 mps 761 mmHg 31%
    21:00 +29°C° 0 mm 8 mps 762 mmHg 38%
    22:00 +28°C° 0.1 mm 6 mps 762 mmHg 41%
    23:00 +27°C° 0.1 mm 5 mps 762 mmHg 44%

    Day after tomorrow, 27 August, Tuesday

    Time Temperature Precipitation Wind Pressure Humidity
    00:00 +26°C° 0.1 mm 4 mps 762 mmHg 48%
    01:00 +26°C° 0.1 mm 3 mps 762 mmHg 49%
    02:00 +26°C° 0.1 mm 3 mps 762 mmHg 51%
    03:00 +26°C° 0.1 mm 3 mps 762 mmHg 52%
    04:00 +25°C° 0.2 mm 3 mps 762 mmHg 56%
    05:00 +25°C° 0.2 mm 3 mps 762 mmHg 60%
    06:00 +23°C° 0.2 mm 4 mps 762 mmHg 64%
    07:00 +26°C° 0 mm 4 mps 762 mmHg 57%
    08:00 +28°C° 0 mm 5 mps 761 mmHg 50%
    09:00 +30°C° 0 mm 5 mps 761 mmHg 42%
    10:00 +33°C° 0 mm 5 mps 760 mmHg 38%
    11:00 +34°C° 0 mm 5 mps 760 mmHg 33%
    12:00 +35°C° 0 mm 5 mps 759 mmHg 29%
    13:00 +36°C° 0 mm 5 mps 759 mmHg 27%
    14:00 +37°C° 0 mm 5 mps 758 mmHg 26%
    15:00 +39°C° 0 mm 5 mps 758 mmHg 24%
    16:00 +37°C° 0 mm 4 mps 758 mmHg 25%
    17:00 +36°C° 0 mm 4 mps 758 mmHg 27%
    18:00 +35°C° 0 mm 4 mps 758 mmHg 28%
    19:00 +33°C° 0 mm 4 mps 758 mmHg 34%
    20:00 +29°C° 0 mm 4 mps 758 mmHg 41%
    21:00 +27°C° 0 mm 5 mps 759 mmHg 47%
    22:00 +26°C° 0 mm 4 mps 759 mmHg 51%
    23:00 +26°C° 0 mm 3 mps 758 mmHg 55%

    28 August, Wednesday

    Time Temperature Precipitation Wind Pressure Humidity
    00:00 +25°C° 0 mm 3 mps 758 mmHg 59%
    01:00 +24°C° 0 mm 2 mps 758 mmHg 61%
    02:00 +24°C° 0 mm 2 mps 758 mmHg 62%
    03:00 +24°C° 0 mm 1 mps 758 mmHg 64%
    04:00 +24°C° 0 mm 1 mps 758 mmHg 64%
    05:00 +24°C° 0 mm 1 mps 758 mmHg 64%
    06:00 +22°C° 0 mm 0 mps 759 mmHg 64%
    07:00 +26°C° 0 mm 1 mps 758 mmHg 56%
    08:00 +28°C° 0 mm 1 mps 758 mmHg 48%
    09:00 +30°C° 0 mm 1 mps 758 mmHg 40%
    10:00 +32°C° 0 mm 1 mps 758 mmHg 36%
    11:00 +33°C° 0 mm 1 mps 758 mmHg 33%
    12:00 +36°C° 0 mm 2 mps 757 mmHg 29%
    13:00 +36°C° 0 mm 2 mps 757 mmHg 27%
    14:00 +37°C° 0 mm 2 mps 757 mmHg 26%
    15:00 +38°C° 0 mm 2 mps 756 mmHg 25%
    16:00 +37°C° 0 mm 2 mps 756 mmHg 26%
    17:00 +36°C° 0 mm 2 mps 756 mmHg 27%
    18:00 +35°C° 0 mm 3 mps 757 mmHg 29%
    19:00 +33°C° 0 mm 4 mps 757 mmHg 34%
    20:00 +30°C° 0 mm 5 mps 758 mmHg 38%
    21:00 +28°C° 0 mm 7 mps 759 mmHg 43%
    22:00 +27°C° 0 mm 6 mps 759 mmHg 48%
    23:00 +26°C° 0 mm 5 mps 759 mmHg 53%

    29 August, Thursday

    Time Temperature Precipitation Wind Pressure Humidity
    00:00 +25°C° 0 mm 4 mps 759 mmHg 57%
    01:00 +24°C° 0 mm 3 mps 759 mmHg 59%
    02:00 +24°C° 0 mm 3 mps 759 mmHg 60%
    03:00 +24°C° 0 mm 3 mps 759 mmHg 62%
    04:00 +24°C° 0 mm 2 mps 760 mmHg 63%
    05:00 +24°C° 0 mm 2 mps 760 mmHg 64%
    06:00 +24°C° 0 mm 2 mps 760 mmHg 65%
    07:00 +26°C° 0 mm 2 mps 760 mmHg 58%
    08:00 +28°C° 0 mm 3 mps 759 mmHg 50%
    09:00 +30°C° 0 mm 3 mps 759 mmHg 42%
    10:00 +33°C° 0 mm 3 mps 759 mmHg 37%
    11:00 +34°C° 0 mm 3 mps 758 mmHg 32%
    12:00 +36°C° 0 mm 4 mps 758 mmHg 28%
    13:00 +37°C° 0 mm 4 mps 757 mmHg 26%
    14:00 +37°C° 0 mm 4 mps 757 mmHg 25%
    15:00 +38°C° 0 mm 3 mps 756 mmHg 23%
    16:00 +37°C° 0 mm 4 mps 756 mmHg 24%
    17:00 +37°C° 0 mm 5 mps 756 mmHg 26%
    18:00 +36°C° 0 mm 5 mps 756 mmHg 27%
    19:00 +33°C° 0 mm 6 mps 757 mmHg 34%
    20:00 +30°C° 0 mm 7 mps 758 mmHg 42%
    21:00 +27°C° 0 mm 7 mps 759 mmHg 50%
    22:00 +27°C° 0 mm 7 mps 759 mmHg 53%
    23:00 +26°C° 0 mm 6 mps 759 mmHg 55%

    30 August, Friday

    Time Temperature Precipitation Wind Pressure Humidity
    00:00 +26°C° 0 mm 5 mps 759 mmHg 58%
    01:00 +25°C° 0 mm 5 mps 759 mmHg 62%
    02:00 +25°C° 0 mm 5 mps 759 mmHg 66%
    03:00 +23°C° 0 mm 4 mps 759 mmHg 70%
    04:00 +23°C° 0.1 mm 4 mps 759 mmHg 72%
    05:00 +23°C° 0.1 mm 4 mps 759 mmHg 75%
    06:00 +22°C° 0.1 mm 4 mps 759 mmHg 77%
    07:00 +23°C° 0.1 mm 4 mps 759 mmHg 74%
    08:00 +23°C° 0.1 mm 4 mps 759 mmHg 71%
    09:00 +25°C° 0.1 mm 4 mps 759 mmHg 67%
    10:00 +25°C° 0.1 mm 4 mps 759 mmHg 65%
    11:00 +26°C° 0.1 mm 3 mps 758 mmHg 62%
    12:00 +27°C° 0.1 mm 3 mps 758 mmHg 59%
    13:00 +27°C° 0.3 mm 3 mps 758 mmHg 57%
    14:00 +28°C° 0.3 mm 3 mps 758 mmHg 55%
    15:00 +29°C° 0.3 mm 3 mps 757 mmHg 53%
    16:00 +28°C° 0.6 mm 2 mps 758 mmHg 57%
    17:00 +28°C° 0.6 mm 2 mps 758 mmHg 61%
    18:00 +27°C° 0.6 mm 1 mps 758 mmHg 64%
    19:00 +26°C° 0.2 mm 2 mps 759 mmHg 66%
    20:00 +25°C° 0.2 mm 3 mps 759 mmHg 68%
    21:00 +23°C° 0.2 mm 5 mps 760 mmHg 69%
    22:00 +23°C° 0 mm 4 mps 759 mmHg 69%
    23:00 +22°C° 0 mm 4 mps 759 mmHg 69%
    Show more